Change the Weather History Date:

Sunday, October 7, 2012

  Actual Average (KPNC) Record (KPNC)
Temperature  
Mean Temperature 44 °F -  
Max Temperature 55 °F 78 °F 95 °F (1963)
Min Temperature 32 °F 53 °F 30 °F (2012)
Degree Days  
Heating Degree Days 22    
Moisture  
Dew Point 28 °F    
Average Humidity 58    
Maximum Humidity 87    
Minimum Humidity 28    
Precipitation  
Precipitation 0.00 in - - ()
Sea Level Pressure  
Sea Level Pressure 30.29 in    
Wind  
Wind Speed 7 mph (WNW)    
Max Wind Speed 13 mph    
Max Gust Speed 17 mph    
Visibility 10 miles    
Events      
Averages and records for this station are not official NWS values.
T = Trace of Precipitation, MM = Missing Value Source: NWS Daily Summary

Daily Weather History Graph

Daily Weather History Graph

Search for Another Location

Airport or City:

Trip Planner

Search our weather history database for the weather conditions in past years. The results will help you decide how hot, cold, wet, or windy it might be!

Date:

Astronomy

Oct. 07, 2012 Rise Set
Actual Time 7:30 AM CDT 7:03 PM CDT
Civil Twilight 7:04 AM CDT 7:29 PM CDT
Nautical Twilight 6:34 AM CDT 7:59 PM CDT
Astronomical Twilight 6:04 AM CDT 8:29 PM CDT
Moon No Moon Rise 2:02 PM CDT (10/7)
Length of Visible Light 12h 24m
Length of Day
11h 33m
Waning Gibbous, 56% of the Moon is Illuminated
Oct 7
Waning Gibbous
Oct 8
Last Quarter
Oct 15
New
Oct 21
First Quarter
Oct 29
Full

Hourly Weather History & Observations

Time (CDT) Temp. Windchill Dew Point Humidity Pressure Visibility Wind Dir Wind Speed Gust Speed Precip Events Conditions
12:15 AM 44.6 °F 40.7 °F 32.0 °F 61% 30.35 in 10.0 mi NNW 6.9 mph - N/A   Overcast
12:35 AM 44.6 °F 40.2 °F 32.0 °F 61% 30.34 in 10.0 mi NNW 8.1 mph - N/A   Scattered Clouds
12:55 AM 44.6 °F 40.2 °F 32.0 °F 61% 30.35 in 10.0 mi NNW 8.1 mph - N/A   Clear
1:15 AM 42.8 °F 38.6 °F 32.0 °F 66% 30.34 in 10.0 mi NNW 6.9 mph - N/A   Clear
1:35 AM 42.8 °F 38.6 °F 32.0 °F 66% 30.35 in 10.0 mi NNW 6.9 mph - N/A   Mostly Cloudy
1:55 AM 42.8 °F 38.0 °F 32.0 °F 66% 30.35 in 10.0 mi NNW 8.1 mph - N/A   Overcast
2:15 AM 41.0 °F 37.1 °F 32.0 °F 70% 30.35 in 10.0 mi NNW 5.8 mph - N/A   Overcast
2:35 AM 41.0 °F 38.0 °F 32.0 °F 70% 30.35 in 10.0 mi NNW 4.6 mph - N/A   Overcast
2:55 AM 41.0 °F 37.1 °F 32.0 °F 70% 30.35 in 10.0 mi NW 5.8 mph - N/A   Overcast
3:15 AM 37.4 °F 32.8 °F 32.0 °F 81% 30.35 in 10.0 mi NW 5.8 mph - N/A   Scattered Clouds
3:35 AM 35.6 °F 30.7 °F 32.0 °F 87% 30.34 in 10.0 mi NW 5.8 mph - N/A   Clear
3:55 AM 35.6 °F 30.7 °F 30.2 °F 81% 30.34 in 10.0 mi NW 5.8 mph - N/A   Clear
4:15 AM 33.8 °F 28.6 °F 30.2 °F 87% 30.33 in 10.0 mi NNW 5.8 mph - N/A   Clear
4:35 AM 32.0 °F 24.8 °F 28.4 °F 87% 30.33 in 10.0 mi NNW 8.1 mph - N/A   Clear
4:55 AM 32.0 °F 25.6 °F 28.4 °F 87% 30.34 in 10.0 mi NNW 6.9 mph - N/A   Clear
5:15 AM 32.0 °F 24.8 °F 28.4 °F 87% 30.33 in 10.0 mi NNW 8.1 mph - N/A   Clear
5:35 AM 32.0 °F 24.8 °F 28.4 °F 87% 30.33 in 10.0 mi NNW 8.1 mph - N/A   Partly Cloudy
5:55 AM 32.0 °F 24.8 °F 28.4 °F 87% 30.33 in 10.0 mi NNW 8.1 mph - N/A   Partly Cloudy
6:15 AM 32.0 °F 24.8 °F 28.4 °F 87% 30.33 in 10.0 mi NNW 8.1 mph - N/A   Clear
6:35 AM 32.0 °F 24.8 °F 28.4 °F 87% 30.34 in 10.0 mi NNW 8.1 mph - N/A   Partly Cloudy
6:55 AM 32.0 °F 24.8 °F 28.4 °F 87% 30.34 in 10.0 mi North 8.1 mph - N/A   Clear
7:15 AM 32.0 °F 24.8 °F 28.4 °F 87% 30.34 in 10.0 mi North 8.1 mph - N/A   Clear
7:35 AM 32.0 °F 24.2 °F 28.4 °F 87% 30.34 in 10.0 mi NNW 9.2 mph - N/A   Clear
7:55 AM 32.0 °F 24.2 °F 28.4 °F 87% 30.34 in 10.0 mi North 9.2 mph - N/A   Clear
8:15 AM 32.0 °F 24.2 °F 28.4 °F 87% 30.34 in 10.0 mi North 9.2 mph - N/A   Clear
8:35 AM 35.6 °F 28.6 °F 32.0 °F 87% 30.34 in 10.0 mi North 9.2 mph - N/A   Clear
8:55 AM 39.2 °F 32.0 °F 32.0 °F 75% 30.35 in 10.0 mi North 11.5 mph - N/A   Clear
9:15 AM 39.2 °F 32.5 °F 32.0 °F 75% 30.35 in 10.0 mi North 10.4 mph - N/A   Clear
9:35 AM 41.0 °F 35.2 °F 32.0 °F 70% 30.35 in 10.0 mi North 9.2 mph - N/A   Clear
9:55 AM 42.8 °F 38.0 °F 32.0 °F 66% 30.35 in 10.0 mi NNE 8.1 mph - N/A   Clear
10:15 AM 44.6 °F 40.2 °F 32.0 °F 61% 30.35 in 10.0 mi North 8.1 mph - N/A   Clear
10:35 AM 46.4 °F 44.3 °F 30.2 °F 53% 30.34 in 10.0 mi NNE 4.6 mph - N/A   Clear
10:55 AM 46.4 °F 44.3 °F 26.6 °F 46% 30.34 in 10.0 mi East 4.6 mph - N/A   Clear
11:15 AM 48.2 °F - 23.0 °F 37% 30.35 in 10.0 mi Calm Calm - N/A   Clear
11:35 AM 48.2 °F - 23.0 °F 37% 30.34 in 10.0 mi Calm Calm - N/A   Clear
11:55 AM 50.0 °F - 23.0 °F 35% 30.33 in 10.0 mi East 4.6 mph - N/A   Clear
12:15 PM 50.0 °F - 23.0 °F 35% 30.33 in 10.0 mi NW 3.5 mph - N/A   Clear
12:35 PM 50.0 °F - 21.2 °F 32% 30.32 in 10.0 mi West 3.5 mph - N/A   Clear
12:55 PM 50.0 °F - 23.0 °F 35% 30.31 in 10.0 mi WNW 3.5 mph - N/A   Clear
1:15 PM 50.0 °F - 21.2 °F 32% 30.30 in 10.0 mi Calm Calm - N/A   Clear
1:35 PM 51.8 °F - 23.0 °F 33% 30.29 in 10.0 mi South 4.6 mph - N/A   Clear
1:55 PM 53.6 °F - 23.0 °F 30% 30.28 in 10.0 mi WNW 6.9 mph - N/A   Clear
2:35 PM 53.6 °F - 23.0 °F 30% 30.25 in 10.0 mi Calm Calm - N/A   Clear
2:55 PM 53.6 °F - 21.2 °F 28% 30.24 in 10.0 mi Calm Calm - N/A   Mostly Cloudy
3:15 PM 53.6 °F - 23.0 °F 30% 30.23 in 10.0 mi NNW 3.5 mph - N/A   Overcast
3:35 PM 55.4 °F - 23.0 °F 29% 30.23 in 10.0 mi South 6.9 mph - N/A   Mostly Cloudy
3:55 PM 55.4 °F - 23.0 °F 29% 30.22 in 10.0 mi SW 6.9 mph - N/A   Mostly Cloudy
4:15 PM 55.4 °F - 23.0 °F 29% 30.21 in 10.0 mi SW 11.5 mph - N/A   Scattered Clouds
4:35 PM 55.4 °F - 23.0 °F 29% 30.20 in 10.0 mi South 5.8 mph 16.1 mph N/A   Clear
4:55 PM 55.4 °F - 23.0 °F 29% 30.20 in 10.0 mi South 6.9 mph - N/A   Clear
5:15 PM 55.4 °F - 23.0 °F 29% 30.19 in 10.0 mi SSW 10.4 mph 17.3 mph N/A   Clear
5:35 PM 53.6 °F - 23.0 °F 30% 30.19 in 10.0 mi SSW 11.5 mph 17.3 mph N/A   Clear
5:55 PM 53.6 °F - 24.8 °F 33% 30.19 in 10.0 mi SW 12.7 mph - N/A   Clear
6:15 PM 53.6 °F - 24.8 °F 33% 30.19 in 10.0 mi SSW 12.7 mph - N/A   Clear
6:35 PM 51.8 °F - 24.8 °F 35% 30.19 in 10.0 mi SSW 11.5 mph - N/A   Clear
6:55 PM 50.0 °F - 24.8 °F 37% 30.19 in 10.0 mi SSW 10.4 mph - N/A   Clear
7:15 PM 50.0 °F - 24.8 °F 37% 30.19 in 10.0 mi SSW 9.2 mph - N/A   Clear
7:35 PM 48.2 °F - 24.8 °F 40% 30.20 in 10.0 mi SSW 9.2 mph - N/A   Clear
7:55 PM 48.2 °F - 24.8 °F 40% 30.20 in 10.0 mi SSW 10.4 mph - N/A   Partly Cloudy
8:15 PM 46.4 °F 40.7 °F 24.8 °F 43% 30.20 in 10.0 mi SSW 12.7 mph - N/A   Partly Cloudy
8:55 PM 44.6 °F 38.4 °F 28.4 °F 53% 30.21 in 10.0 mi SSW 12.7 mph - N/A   Partly Cloudy
9:15 PM 42.8 °F 37.0 °F 28.4 °F 57% 30.21 in 10.0 mi SSW 10.4 mph - N/A   Clear
9:35 PM 41.0 °F 34.7 °F 30.2 °F 65% 30.21 in 10.0 mi SSW 10.4 mph - N/A   Clear
9:55 PM 41.0 °F 35.2 °F 30.2 °F 65% 30.21 in 10.0 mi SSW 9.2 mph - N/A   Clear
10:15 PM 41.0 °F 36.4 °F 32.0 °F 70% 30.22 in 10.0 mi SW 6.9 mph - N/A   Clear
10:35 PM 39.2 °F 35.0 °F 32.0 °F 75% 30.21 in 10.0 mi SSW 5.8 mph - N/A   Clear
10:55 PM 39.2 °F 35.0 °F 30.2 °F 70% 30.22 in 10.0 mi SSW 5.8 mph - N/A   Clear
11:15 PM 37.4 °F 32.8 °F 32.0 °F 81% 30.21 in 10.0 mi SW 5.8 mph - N/A   Clear
11:35 PM 39.2 °F 34.2 °F 32.0 °F 75% 30.21 in 10.0 mi SW 6.9 mph - N/A   Clear
11:55 PM 37.4 °F 32.8 °F 32.0 °F 81% 30.21 in 10.0 mi SSW 5.8 mph - N/A   Clear